Regional Weather Roundup
Issued by NWS

Home | Current Version | Previous Version | Graphics & Text | Print | Product List | Glossary On
Versions: 1 2 3 4 5 6 7 8 9 10 11 12 13 14 15 16 17 18 19 20 21 22 23 24 25 26 27 28 29 30 31 32 33 34 35 36 37 38 39 40 41 42 43 44 45 46 47 48 49 50
825
ASUS43 KDMX 090808
RWRIA

WEATHER ROUNDUP FOR IOWA
NATIONAL WEATHER SERVICE DES MOINES IA
200 AM CST TUE FEB 09 2016

NOTE: "FAIR" INDICATES FEW OR NO CLOUDS BELOW 12,000 FEET WITH NO
SIGNIFICANT WEATHER AND/OR OBSTRUCTIONS TO VISIBILITY.

* - THESE STATIONS ARE NOT NWS STATIONS...THUS NOT UNDER NWS
QUALITY CONTROL.  THEY ALSO DO NOT REPORT WEATHER SUCH
AS PRECIPITATION OR FOG.

IAZ001>003-012>014-020>022-031>034-043>046-090900-
   NORTHWEST IOWA

CITY           SKY/WX    TMP DP  RH WIND       PRES   REMARKS
CARROLL *      CLOUDY    12   5  73 NW23G31   30.05S WCI  -7
CHEROKEE *     PTCLDY     9   3  78 N17G28    30.09S WCI -10
DENISON *      MOCLDY    12   5  73 N20G26    30.06S WCI  -6
LE MARS *      CLOUDY    12   7  79 N13G20    30.14S WCI  -3
ORANGE CITY *  CLOUDY     9   7  92 N12G18    30.09R WCI  -6
SHELDON *      CLOUDY     7   3  85 N24G30    30.06S WCI -15
SIOUX CITY     CLEAR     18   7  62 NW26G32   30.11R WCI  -1
SPENCER        LGT SNOW   8   2  76 N22G32    30.06R VSB 1   WCI -12
STORM LAKE *   FLURRIES   9   5  85 N23G31    30.05R WCI -12
$$

IAZ055>058-069>071-079>083-090>094-090900-
   SOUTHWEST IOWA

CITY           SKY/WX    TMP DP  RH WIND       PRES   REMARKS
ATLANTIC *     CLOUDY    14   9  79 N22       30.06S WCI  -4
AUDUBON *      MOCLDY    10   7  85 N18G28    30.05S WCI  -8
CLARINDA *     CLEAR     21  12  68 N23G32    30.07S WCI   5
COUNCIL BLFS * CLEAR     21  10  63 N18G29    30.06S WCI   6
CRESTON *      CLOUDY    14   7  73 N25G39    30.02S WCI  -5
HARLAN  *      CLOUDY    14   9  79 N31G38    30.08S WCI  -7
LAMONI         CLOUDY    15   5  64 N25G37    29.99F WCI  -4
RED OAK *      CLEAR     19  12  73 N21G29    30.07S WCI   3
SHENANDOAH *   CLEAR     23  14  68 N14G24    30.08S WCI  11
$$

IAZ047>049-059>061-072>074-084-090900-
   CENTRAL IOWA

CITY           SKY/WX    TMP DP  RH WIND       PRES   REMARKS
AMES           FLURRIES  12   5  73 NW25G32   30.01R WCI  -8
ANKENY *       FLURRIES  12   7  79 NW23G32   30.01S WCI  -7
BOONE *        CLOUDY    10   3  72 NW21G26   29.99S WCI  -9
CHARITON *     FLURRIES  14   7  73 NW18G28   29.98R WCI  -3
DES MOINES     LGT SNOW  14   6  70 N17G25    30.01R WCI  -3
GRINNELL*      FLURRIES  14   9  79 NW23      29.94S WCI  -5
KNOXVILLE *    FLURRIES  14   7  73 N18G26    29.96S WCI  -3
MARSHALLTOWN   LGT SNOW  12   7  80 NW20G30   29.95S WCI  -6
NEWTON *       LGT SNOW  12   9  85 NW22G32   29.97R WCI  -7
PELLA *        FLURRIES  14   9  79 NW22G31   29.98S WCI  -4
$$

IAZ004>006-015-016-023>025-035-036-090900-
   NORTH CENTRAL IOWA

CITY           SKY/WX    TMP DP  RH WIND       PRES   REMARKS
ALGONA *       FLURRIES  10   5  79 N24G32    29.99S WCI -10
CLARION *      FLURRIES  10   5  79 NW23G31   29.98S WCI -10
ESTHERVILLE    CLOUDY     7   2  80 NW28      30.02F HAZE    WCI -16
FORT DODGE *   CLOUDY    10   1  67 NW13G23   30.02S WCI  -5
MASON CITY     LGT SNOW  11   6  81 N24G32    29.96R WCI  -9
FOREST CITY *  LGT SNOW  12   9  85 NW21G29   29.96R WCI  -6
WEBSTER CITY * CLOUDY    10   5  79 NW26G33   29.98S WCI -11
IOWA FALLS *   LGT SNOW  12   7  79 NW25      29.97R WCI  -8
$$

IAZ007>011-017>019-026>030-037>042-050>054-066-090900-
   NORTHEAST IOWA

CITY           SKY/WX    TMP DP  RH WIND       PRES   REMARKS
CEDAR RAPIDS   LGT SNOW  14  11  87 NW17      29.88S FOG     WCI  -3
CHARLES CITY * CLOUDY    12   9  85 N21       29.92S WCI  -6
CLINTON *      LGT SNOW  15  12  88 NW15      29.85S FOG     WCI   0
DECORAH *      LGT SNOW  12   5  73 N20G26    29.87S WCI  -6
DUBUQUE        CLOUDY    13   8  81 N15       29.82S WCI  -3
MONTICELLO *   CLOUDY    14   7  73 NW20G26   29.87R WCI  -3
OELWEIN *      CLOUDY    14   7  73 N21G26    29.89S WCI  -4
WATERLOO       CLOUDY    13   7  77 NW21      29.93R WCI  -5
$$

IAZ064-065-067-068-078-090900-
   EAST CENTRAL IOWA

CITY           SKY/WX    TMP DP  RH WIND       PRES   REMARKS
DAVENPORT      LGT SNOW  15  10  80 NW18      29.85S WCI  -2
IOWA CITY      LGT SNOW  16  11  80 NW13G22   29.91S WCI   2
MT. PLEASANT * LGT SNOW  19  14  79 NW14G21   29.90S WCI   6
MUSCATINE *    LGT SNOW  18  12  79 NW15      29.90S WCI   3
QUAD CITIES    LGT SNOW  17  10  74 NW14G23   29.86S WCI   3
$$

IAZ062-063-075>077-085>089-095>099-090900-
   SOUTHEAST IOWA

CITY           SKY/WX    TMP DP  RH WIND       PRES   REMARKS
BURLINGTON     LGT SNOW  17  13  84 NW10      29.88S FOG     WCI   5
FAIRFIELD *    FLURRIES  16   9  73 NW22G29   29.92R WCI  -2
FORT MADISON * LGT SNOW  16  12  86 NW15G22   29.90S WCI   1
KEOKUK *       FLURRIES  18  12  79 NW14G20   29.90F WCI   4
OSKALOOSA *    FLURRIES  14  10  85 NW17G32   29.95S WCI  -3
CENTERVILLE *  FLURRIES  16  10  79 NW16G23   29.97R WCI   0
OTTUMWA        FLURRIES  14   9  80 NW24G32   29.94F WCI  -5
WASHINGTON *   LGT SNOW  16  10  79 NW18G24   29.92S WCI  -1
$$

ABBREVIATIONS USED IN REMARKS
   TC - TEMPERATURES IN CELSIUS
  WCI - WIND CHILL INDEX
   HX - HEAT INDEX
  VSB - VISIBILITY
$$





USA.gov is the U.S. government's official web portal to all federal, state and local government web resources and services.